Location: Burland Observatory
(39.4088°N, 105.4217°W)
Time: 23:23:43
(UTC-07:00)

SR - Pass Details

Date: 17 December 2019
Orbit: 574 x 882 km, 66.7° (Epoch: 17 January)

Event Time Altitude Azimuth Distance (km) Brightness Sun altitude
Rises 07:11:07 0° 195° (SSW) 3,214 ? -1.6°
Reaches altitude 10° 07:13:27 10° 191° (SSW) 2,337 ? -1.2°
Maximum altitude 07:18:45 58° 114° (ESE) 962 ? -0.3°
Drops below altitude 10° 07:24:27 10° 36° (NE) 2,506 ? 0.6°
Sets 07:27:02 0° 33° (NNE) 3,467 ? 1.0°
